Weather History for Southport, NC

Change the Weather History Date:

Monday, September 1, 2014

  Actual Average (KILM) Record (KILM)
Temperature  
Mean Temperature 82 °F 78 °F  
Max Temperature 88 °F 87 °F 96 °F (1993)
Min Temperature 76 °F 70 °F 56 °F (1887)
Degree Days  
Heating Degree Days 0 0  
Month to date heating degree days 0  
Since 1 July heating degree days 0  
Cooling Degree Days 17 13  
Month to date cooling degree days 13  
Year to date cooling degree days 1636  
Growing Degree Days 32 (Base 50)    
Moisture  
Dew Point 75 °F    
Average Humidity 79    
Maximum Humidity 91    
Minimum Humidity 63    
Precipitation  
Precipitation 0.00 in 0.28 in 3.19 in (1877)
Month to date precipitation 0.28  
Year to date precipitation 39.25  
Sea Level Pressure  
Sea Level Pressure 30.10 in    
Wind  
Wind Speed 6 mph (SW)    
Max Wind Speed 9 mph    
Max Gust Speed 16 mph    
Visibility 10 miles    
Events      
T = Trace of Precipitation, MM = Missing Value Source: NWS Daily Summary

Daily Weather History Graph

Daily Weather History Graph

Search for Another Location

Airport:

Trip Planner

Search our weather history database for the weather conditions in past years. The results will help you decide how hot, cold, wet, or windy it might be!

Date:

Astronomy

Sep. 01, 2014 Rise Set
Actual Time 6:45 AM EDT 7:38 PM EDT
Civil Twilight 6:20 AM EDT 8:03 PM EDT
Nautical Twilight 5:50 AM EDT 8:33 PM EDT
Astronomical Twilight 5:19 AM EDT 9:04 PM EDT
Moon 1:11 PM EDT (9/1) 11:56 PM EDT (9/1)
Length of Visible Light 13h 43m
Length of Day
12h 52m
Waxing Crescent, 42% of the Moon is Illuminated
Sep 1
Waxing Crescent
Sep 2
First Quarter
Sep 8
Full
Sep 15
Last Quarter
Sep 24
New

Hourly Weather History & Observations

Time (EDT) Temp. Heat Index Dew Point Humidity Pressure Visibility Wind Dir Wind Speed Gust Speed Precip Events Conditions
12:15 AM 79.7 °F - 74.7 °F 84% 30.12 in 10.0 mi SSW 6.9 mph - N/A   Clear
12:35 AM 79.7 °F - 74.5 °F 84% 30.11 in 10.0 mi South 6.9 mph - N/A   Scattered Clouds
12:55 AM 79.7 °F - 74.5 °F 84% 30.11 in 10.0 mi South 8.1 mph - N/A   Scattered Clouds
1:15 AM 79.5 °F - 74.5 °F 84% 30.12 in 10.0 mi SSW 6.9 mph - N/A   Scattered Clouds
1:35 AM 79.3 °F - 74.5 °F 85% 30.11 in 10.0 mi SSW 6.9 mph - N/A   Scattered Clouds
1:55 AM 79.3 °F - 74.5 °F 85% 30.10 in 10.0 mi SSW 4.6 mph - N/A   Scattered Clouds
2:15 AM 79.3 °F - 74.7 °F 86% 30.10 in 10.0 mi SSW 4.6 mph - N/A   Scattered Clouds
2:35 AM 79.3 °F - 74.7 °F 86% 30.10 in 10.0 mi SW 4.6 mph - N/A   Scattered Clouds
2:55 AM 79.3 °F - 74.7 °F 86% 30.09 in 10.0 mi SSW 4.6 mph - N/A   Clear
3:15 AM 79.3 °F - 75.2 °F 87% 30.09 in 10.0 mi SSW 6.9 mph - N/A   Scattered Clouds
3:35 AM 79.3 °F - 75.0 °F 87% 30.08 in 10.0 mi SW 8.1 mph - N/A   Clear
3:55 AM 79.3 °F - 73.9 °F 83% 30.08 in 10.0 mi SW 5.8 mph - N/A   Clear
4:15 AM 79.2 °F - 74.3 °F 85% 30.09 in 10.0 mi SW 6.9 mph - N/A   Clear
4:35 AM 79.3 °F - 74.5 °F 85% 30.08 in 10.0 mi SW 6.9 mph - N/A   Scattered Clouds
5:15 AM 78.6 °F - 74.1 °F 86% 30.09 in 10.0 mi Calm Calm - N/A   Scattered Clouds
5:35 AM 79.0 °F - 74.5 °F 86% 30.10 in 10.0 mi Calm Calm - N/A   Scattered Clouds
5:55 AM 77.9 °F - 73.8 °F 87% 30.10 in 10.0 mi Calm Calm - N/A   Scattered Clouds
6:15 AM 77.0 °F - 73.6 °F 89% 30.11 in 10.0 mi Calm Calm - N/A   Clear
6:35 AM 76.1 °F - 73.4 °F 91% 30.11 in 10.0 mi Calm Calm - N/A   Clear
6:55 AM 76.1 °F - 73.4 °F 91% 30.12 in 10.0 mi Calm Calm - N/A   Clear
7:15 AM 76.1 °F - 73.4 °F 91% 30.12 in 10.0 mi Calm Calm - N/A   Scattered Clouds
7:35 AM 77.2 °F - 74.3 °F 91% 30.13 in 10.0 mi Calm Calm - N/A   Scattered Clouds
8:15 AM 79.3 °F - 75.2 °F 87% 30.13 in 10.0 mi NW 4.6 mph - N/A   Scattered Clouds
8:35 AM 79.9 °F - 75.0 °F 85% 30.13 in 10.0 mi NW 4.6 mph - N/A   Clear
8:55 AM 81.5 °F 87.8 °F 75.0 °F 81% 30.13 in 10.0 mi WNW 5.8 mph - N/A   Scattered Clouds
9:15 AM 82.8 °F 89.8 °F 75.0 °F 77% 30.13 in 10.0 mi NW 6.9 mph - N/A   Scattered Clouds
9:35 AM 82.8 °F 89.2 °F 74.3 °F 75% 30.13 in 10.0 mi WNW 4.6 mph - N/A   Scattered Clouds
9:55 AM 84.6 °F 91.4 °F 73.4 °F 69% 30.12 in 10.0 mi WNW 8.1 mph - N/A   Scattered Clouds
10:15 AM 83.8 °F 90.4 °F 73.4 °F 71% 30.12 in 10.0 mi West 4.6 mph - N/A   Scattered Clouds
10:35 AM 84.9 °F 90.1 °F 71.2 °F 63% 30.12 in 10.0 mi NNW 4.6 mph - N/A   Scattered Clouds
10:55 AM 86.5 °F 95.5 °F 75.0 °F 68% 30.12 in 10.0 mi SW 4.6 mph - N/A   Mostly Cloudy
11:15 AM 86.7 °F 96.9 °F 75.7 °F 70% 30.12 in 10.0 mi WSW 6.9 mph - N/A   Scattered Clouds
11:35 AM 87.3 °F 97.2 °F 75.4 °F 68% 30.12 in 10.0 mi SSW 6.9 mph - N/A   Clear
12:15 PM 86.9 °F 95.0 °F 73.9 °F 65% 30.11 in 10.0 mi South 5.8 mph - N/A   Clear
12:35 PM 86.9 °F 95.9 °F 74.7 °F 67% 30.11 in 10.0 mi SSW 8.1 mph - N/A   Clear
12:55 PM 86.9 °F 95.4 °F 74.1 °F 66% 30.11 in 10.0 mi SSW 6.9 mph - N/A   Clear
1:35 PM 88.0 °F 98.0 °F 75.6 °F 66% 30.10 in 10.0 mi SSW 5.8 mph - N/A   Clear
1:55 PM 87.1 °F 97.3 °F 75.7 °F 69% 30.10 in 10.0 mi SW 9.2 mph - N/A   Clear
2:15 PM 87.1 °F 96.8 °F 75.2 °F 68% 30.10 in 10.0 mi SSW 8.1 mph - N/A   Clear
2:35 PM 87.1 °F 97.3 °F 75.7 °F 69% 30.09 in 10.0 mi South 8.1 mph - N/A   Clear
2:55 PM 86.4 °F 96.0 °F 75.4 °F 70% 30.09 in 10.0 mi SW 9.2 mph - N/A   Clear
3:15 PM 86.4 °F 95.5 °F 75.2 °F 69% 30.08 in 10.0 mi South 8.1 mph - N/A   Clear
3:35 PM 84.7 °F 93.2 °F 75.2 °F 73% 30.08 in 10.0 mi South 9.2 mph - N/A   Clear
4:15 PM 86.2 °F 96.4 °F 76.1 °F 72% 30.07 in 10.0 mi SSW 4.6 mph - N/A   Clear
4:35 PM 85.3 °F 94.2 °F 75.4 °F 72% 30.07 in 10.0 mi South 9.2 mph 16.1 mph N/A   Clear
4:55 PM 85.3 °F 93.4 °F 74.7 °F 70% 30.07 in 10.0 mi South 9.2 mph - N/A   Clear
5:15 PM 84.7 °F 92.8 °F 75.0 °F 72% 30.06 in 10.0 mi SSW 9.2 mph - N/A   Clear
5:35 PM 84.6 °F 92.8 °F 75.2 °F 73% 30.06 in 10.0 mi SSW 9.2 mph - N/A   Clear
5:55 PM 84.6 °F 93.2 °F 75.4 °F 74% 30.07 in 10.0 mi South 5.8 mph - N/A   Clear
6:15 PM 82.9 °F 90.2 °F 75.0 °F 77% 30.06 in 10.0 mi SSW 8.1 mph - N/A   Scattered Clouds
6:35 PM 82.9 °F 89.7 °F 74.3 °F 75% 30.08 in 10.0 mi South 8.1 mph - N/A   Clear
6:55 PM 82.8 °F 89.2 °F 73.9 °F 75% 30.07 in 10.0 mi South 6.9 mph - N/A   Clear
7:15 PM 82.0 °F 88.1 °F 74.3 °F 77% 30.07 in 10.0 mi South 5.8 mph - N/A   Clear
7:35 PM 81.5 °F 87.4 °F 74.3 °F 79% 30.07 in 10.0 mi SW 6.9 mph - N/A   Clear
7:55 PM 81.5 °F 87.2 °F 74.1 °F 78% 30.07 in 10.0 mi SSW 5.8 mph - N/A   Clear
8:15 PM 81.1 °F 87.2 °F 75.2 °F 82% 30.07 in 10.0 mi SSW 6.9 mph - N/A   Clear
8:35 PM 81.1 °F 87.2 °F 75.2 °F 82% 30.08 in 10.0 mi SSW 5.8 mph - N/A   Clear
8:55 PM 81.0 °F 86.5 °F 74.5 °F 81% 30.08 in 10.0 mi SSW 8.1 mph - N/A   Clear
9:15 PM 80.8 °F 86.5 °F 75.0 °F 83% 30.08 in 10.0 mi SSW 6.9 mph - N/A   Scattered Clouds
9:35 PM 80.8 °F 86.3 °F 74.7 °F 82% 30.09 in 10.0 mi SW 8.1 mph - N/A   Scattered Clouds
10:15 PM 80.4 °F 85.8 °F 75.2 °F 84% 30.09 in 10.0 mi SSW 5.8 mph - N/A   Clear
10:35 PM 80.4 °F 85.8 °F 75.2 °F 84% 30.09 in 10.0 mi SSW 5.8 mph - N/A   Scattered Clouds
10:55 PM 80.2 °F 85.5 °F 75.2 °F 85% 30.09 in 10.0 mi SSW 5.8 mph - N/A   Scattered Clouds
11:15 PM 80.2 °F 85.5 °F 75.4 °F 85% 30.09 in 10.0 mi SW 8.1 mph - N/A   Scattered Clouds
11:35 PM 80.2 °F 85.5 °F 75.2 °F 85% 30.10 in 10.0 mi SSW 4.6 mph - N/A   Scattered Clouds
11:55 PM 80.2 °F 85.4 °F 74.8 °F 84% 30.10 in 10.0 mi SSW 6.9 mph - N/A   Scattered Clouds